Temperature
21 20 18 18 19 19 19 19 19 20 20 19 18 18 16 15 14 13 12 12 11 11 10 9 9 9 10 10 11 11 12 12 12 12 12 12 12 12 12 12 12 12 12 11
20 18 18 19 19 19 19 18 19 19 19 18 17 17 15 13 13 12 12 11 10 10 10 9 9 8 8 8 8 8 9 10 10 10 11 11 11 11 11 11 12 12 11 11
19 18 19 19 19 18 18 17 16 16 17 18 17 16 13 13 12 12 11 10 10 10 9 9 8 8 8 7 7 7 7 7 8 8 9 9 10 10 10 11 11 11 11 10
19 18 18 18 17 16 16 17 16 16 15 15 17 15 12 12 11 11 11 10 10 9 9 9 8 8 7 7 6 6 6 6 7 7 7 8 8 9 9 10 10 11 10 10
17 16 16 17 16 16 16 16 15 15 15 14 15 15 14 12 11 10 10 10 10 9 9 8 8 7 7 7 6 6 6 6 6 6 6 7 7 8 8 9 10 10 10 10
17 17 16 15 16 17 16 16 16 16 15 14 16 15 13 11 10 10 10 10 9 9 8 8 8 7 7 6 6 6 6 5 5 5 5 5 6 7 7 8 9 9 10 9
18 16 16 16 15 16 15 14 14 15 14 15 16 16 11 10 10 10 10 10 9 8 8 8 7 7 7 6 6 6 5 5 5 4 4 4 4 5 6 7 8 9 9 9
16 16 15 14 14 13 14 14 12 12 13 14 15 13 8 11 11 11 10 9 8 8 7 7 7 6 6 6 5 5 5 5 4 3 3 3 3 3 5 6 7 8 8 8
14 15 15 14 14 13 13 13 14 12 12 12 14 8 10 11 10 10 9 8 8 7 7 6 6 5 5 5 4 4 4 4 3 2 2 1 1 2 3 4 6 6 7 7
13 12 15 14 14 14 14 13 12 12 11 11 12 13 9 10 8 8 8 7 7 6 6 5 5 4 4 3 3 3 3 3 2 2 1 0 0 0 1 2 3 4 5 5
13 12 13 15 15 12 12 13 13 12 11 10 10 11 10 8 7 7 7 6 6 5 5 4 4 3 2 2 1 1 1 1 1 1 0 -0 -1 -1 -1 0 1 2 3 3
12 11 11 13 12 12 12 12 11 9 10 9 8 9 10 8 7 7 6 6 5 4 4 3 2 1 1 0 0 0 0 0 -0 -0 -1 -1 -2 -2 -2 -1 -0 0 1 1
10 10 11 12 11 11 12 12 11 10 8 7 6 8 10 8 7 6 5 5 4 3 3 2 1 -0 -1 -1 -1 -1 -1 -1 -1 -1 -2 -2 -2 -3 -3 -2 -2 -1 -1 -0
9 9 10 10 10 10 10 9 9 8 6 6 6 7 7 6 5 5 4 4 3 2 1 0 -1 -1 -2 -2 -2 -2 -2 -2 -2 -2 -2 -3 -4 -4 -4 -4 -3 -3 -2 -2
9 8 9 10 10 10 9 8 8 7 7 5 6 6 6 5 4 4 3 3 1 0 -0 -1 -2 -3 -3 -3 -3 -3 -3 -3 -3 -3 -3 -4 -5 -5 -5 -4 -4 -4 -3 -3
9 7 8 8 9 9 8 8 8 7 6 6 5 5 5 5 4 3 2 1 -1 -1 -2 -3 -3 -4 -4 -4 -4 -4 -4 -4 -4 -5 -5 -6 -5 -5 -5 -5 -5 -4 -4 -4
8 7 6 5 8 7 7 6 5 5 5 5 3 3 4 3 3 2 1 -1 -2 -2 -3 -4 -5 -6 -6 -6 -6 -6 -6 -6 -6 -7 -7 -7 -7 -6 -6 -6 -5 -5 -5 -5
7 7 5 4 5 3 5 6 5 4 5 4 4 3 3 3 1 1 0 -2 -3 -4 -5 -6 -6 -7 -7 -7 -7 -7 -7 -7 -8 -8 -8 -8 -8 -7 -7 -6 -6 -6 -6 -6
6 6 5 3 3 4 5 4 4 3 3 4 3 3 2 1 0 1 -1 -4 -4 -5 -6 -7 -8 -8 -8 -8 -8 -8 -8 -8 -8 -9 -9 -9 -8 -8 -8 -8 -7 -7 -7 -7
5 5 4 3 2 2 4 4 5 4 3 4 3 2 1 -0 -1 -2 -3 -5 -5 -6 -7 -8 -8 -8 -8 -9 -9 -9 -9 -9 -9 -9 -9 -9 -9 -9 -9 -9 -9 -8 -8 -8
4 4 3 2 2 3 4 5 5 2 2 3 3 1 -0 -2 -3 -4 -5 -6 -6 -7 -8 -8 -9 -10 -10 -10 -10 -10 -10 -10 -10 -10 -9 -9 -9 -9 -9 -9 -9 -9 -9 -9
5 4 4 3 2 2 5 4 3 2 4 3 1 -0 -2 -3 -4 -5 -6 -7 -7 -8 -9 -9 -10 -10 -11 -11 -11 -11 -11 -10 -10 -10 -10 -10 -10 -10 -10 -10 -9 -9 -9 -9
4 4 3 3 3 5 5 4 4 4 3 1 -0 -2 -3 -4 -5 -6 -7 -8 -8 -9 -10 -10 -10 -11 -11 -11 -11 -11 -11 -11 -11 -10 -10 -10 -10 -10 -10 -10 -10 -10 -10 -10
5 3 3 3 4 5 5 4 4 3 2 0 -1 -3 -5 -6 -7 -7 -8 -9 -9 -10 -10 -11 -11 -11 -11 -11 -11 -12 -11 -11 -11 -11 -11 -11 -11 -11 -11 -11 -11 -11 -11 -11
4 4 3 3 4 5 4 3 3 2 0 -1 -3 -5 -6 -7 -7 -8 -9 -10 -10 -10 -10 -11 -12 -12 -12 -12 -12 -12 -12 -12 -12 -12 -13 -12 -12 -12 -12 -12 -12 -12 -11 -11
4 3 2 3 3 3 2 2 1 0 -1 -3 -4 -6 -7 -8 -8 -9 -10 -10 -10 -10 -11 -11 -12 -12 -12 -12 -13 -13 -13 -13 -13 -13 -13 -13 -13 -13 -13 -13 -13 -13 -12 -12
Wind_Speed
3 2 7 8 8 7 8 9 11 8 6 6 6 4 9 12 13 12 12 12 13 13 13 14 15 15 15 17 18 18 17 17 14 11 9 7 6 6 6 5 5 5 5 6
5 7 7 7 6 6 9 10 9 7 11 12 9 0 11 13 13 11 11 11 11 11 12 13 13 13 13 13 14 15 15 15 14 12 11 9 8 6 5 5 5 5 6 6
7 5 7 7 6 9 10 7 7 9 12 10 7 3 11 12 12 10 10 9 10 12 11 11 12 12 11 11 11 13 12 13 14 15 12 11 9 7 5 6 6 6 6 6
4 6 7 6 8 8 7 9 10 11 9 5 6 2 9 11 10 9 9 9 9 9 9 9 10 11 10 9 8 9 11 12 13 14 15 17 13 11 9 7 7 8 8 7
5 6 8 7 6 6 7 11 16 15 10 8 7 6 7 11 9 9 9 9 9 9 9 10 9 9 9 8 8 8 10 11 12 15 16 17 15 13 10 9 8 6 5 6
5 4 5 6 8 4 8 13 17 8 1 4 3 4 5 5 8 8 9 9 10 10 10 10 9 9 9 9 9 10 10 10 11 14 16 17 19 18 15 12 9 6 4 5
3 6 4 5 8 7 10 8 6 5 1 2 5 3 7 7 8 9 9 10 10 11 11 11 12 12 12 13 13 12 11 10 10 12 14 18 20 20 17 12 8 6 4 2
8 3 4 6 6 6 8 6 5 5 6 10 9 1 8 7 7 9 10 10 11 12 12 13 14 14 14 14 14 15 13 9 9 10 13 16 19 17 14 11 6 3 3 4
8 5 4 5 3 5 7 6 3 4 8 7 2 6 5 4 8 12 13 14 14 15 15 16 16 15 16 16 15 16 14 10 9 10 12 14 17 19 19 16 7 2 3 4
7 7 6 5 6 4 3 4 5 4 5 6 8 2 5 6 11 13 14 15 15 15 15 15 15 16 16 16 15 17 14 12 9 10 11 15 15 17 18 16 13 6 4 4
6 5 7 6 2 4 5 4 4 4 5 5 6 2 8 11 12 13 14 15 16 17 17 16 15 16 17 17 16 16 14 12 10 10 12 13 14 16 17 15 14 9 6 5
7 4 6 5 5 3 0 4 5 5 7 6 7 3 11 12 12 13 15 18 19 19 17 16 18 19 18 18 17 15 14 12 10 10 12 13 15 15 15 15 14 12 9 7
7 5 6 1 2 3 1 3 6 6 6 6 6 8 12 19 19 19 21 22 22 19 17 18 18 19 19 19 18 16 15 13 10 11 12 13 14 15 15 14 13 12 10 8
4 4 5 6 7 6 8 10 10 8 5 8 8 13 17 18 20 21 21 21 19 16 18 19 19 19 19 19 18 17 15 12 12 11 11 12 13 14 14 13 12 11 10 8
3 5 8 10 11 10 9 11 10 9 8 8 11 14 15 15 16 18 21 23 19 19 20 21 21 20 20 19 19 17 16 14 13 12 12 12 13 12 12 12 12 11 10 9
2 4 8 8 9 6 10 9 6 4 7 10 13 13 12 14 16 19 22 20 18 20 21 21 21 21 20 20 19 17 16 14 13 12 12 12 13 12 12 11 11 11 10 10
3 3 4 5 10 11 4 6 7 5 8 9 11 9 13 16 19 21 21 16 19 21 20 19 19 18 18 18 18 16 15 13 13 12 12 12 12 12 12 11 10 10 10 9
4 4 3 5 7 5 4 8 7 6 8 9 9 12 14 15 17 17 13 17 19 19 17 17 16 16 16 16 16 14 13 12 12 11 11 11 11 12 12 12 11 10 8 7
4 3 3 3 5 9 6 5 5 7 10 7 11 13 16 18 18 9 14 17 16 15 14 14 14 13 13 14 15 13 11 11 11 11 11 10 10 11 11 11 10 8 8 7
2 3 2 1 2 4 4 4 6 8 6 10 12 13 15 18 17 11 16 15 15 14 13 14 13 12 13 14 14 12 11 11 12 12 10 9 9 10 10 10 9 8 7 7
3 4 4 3 4 5 5 5 8 5 7 11 12 13 13 13 13 15 16 14 13 13 13 13 12 11 10 12 12 11 11 13 14 13 11 9 9 9 8 9 7 7 7 7
2 3 2 3 3 4 7 7 5 7 8 10 9 9 12 15 15 15 14 13 13 13 13 13 11 10 9 10 10 10 11 13 14 13 11 10 9 10 10 8 8 7 8 7
2 1 2 2 3 6 7 6 7 7 8 8 8 10 12 13 13 13 13 12 12 12 12 12 11 11 10 9 9 10 11 13 14 13 12 11 10 9 9 8 7 7 7 7
2 4 1 4 5 7 7 6 7 8 7 8 9 10 10 10 11 12 12 10 11 11 11 10 11 11 10 9 9 9 10 12 13 13 12 11 10 9 9 9 8 6 5 5
2 2 2 5 6 5 6 9 10 9 8 8 10 10 9 9 9 10 9 9 9 10 9 9 9 9 10 10 10 9 10 12 11 12 12 11 11 10 8 9 9 9 5 6
3 3 2 2 5 5 8 10 9 7 7 8 10 10 8 7 8 9 8 7 7 8 8 9 9 10 10 11 11 10 11 12 12 12 12 10 10 10 9 8 9 14 15 17
Wind_Direction
222 309 28 12 14 340 321 307 301 309 70 8 314 329 94 80 70 63 55 47 36 39 37 30 25 21 22 19 11 3 358 352 348 340 332 320 310 307 300 281 271 291 290 285
305 66 14 349 322 305 302 299 317 347 354 332 288 217 100 86 75 66 56 49 37 28 29 26 23 18 21 19 9 358 354 348 344 336 326 310 295 280 279 299 304 298 290 280
33 42 351 328 347 357 323 3 354 320 316 280 258 150 116 102 91 80 66 52 42 28 21 18 16 10 11 15 5 353 345 345 346 340 330 320 311 300 284 272 261 253 258 268
75 30 348 343 32 3 317 2 321 301 306 301 314 240 149 127 99 78 64 49 38 27 16 12 10 3 359 360 351 341 340 346 349 346 339 330 316 302 288 272 248 226 224 243
65 26 5 15 3 331 306 307 284 272 265 274 255 245 168 138 98 68 52 42 30 21 11 5 1 353 344 339 336 334 341 349 349 346 341 332 320 306 296 292 280 247 220 223
107 87 44 354 307 283 297 295 285 257 219 273 261 204 95 87 76 57 41 32 21 13 3 353 347 341 331 331 334 335 340 346 347 345 340 331 322 313 302 291 286 274 246 222
116 119 81 6 342 2 351 340 343 359 257 194 4 305 99 99 78 53 33 23 16 6 356 346 343 339 337 337 337 333 331 336 344 345 339 331 324 316 303 292 287 295 291 262
346 34 61 38 23 326 326 346 11 329 309 316 308 45 121 125 84 50 32 19 9 0 353 347 344 339 337 335 335 332 324 328 346 347 340 333 330 327 316 301 298 325 4 17
347 325 122 94 24 330 346 15 359 287 279 275 273 103 183 170 47 29 18 12 3 356 351 346 344 341 340 339 338 334 328 337 349 351 345 336 336 333 331 327 318 2 55 45
337 300 302 151 182 180 8 324 316 307 310 302 297 349 124 47 23 16 11 5 356 349 346 345 344 343 344 342 340 335 335 339 348 358 351 340 335 333 332 333 336 351 33 53
332 298 300 296 5 35 350 314 314 294 269 274 291 35 87 53 29 14 5 358 350 348 348 347 347 348 345 340 336 331 334 337 351 357 350 340 336 335 335 335 338 346 5 24
6 313 282 305 77 99 312 338 344 309 292 306 303 280 93 53 32 13 360 353 350 348 347 350 350 346 341 337 334 334 336 342 352 357 350 343 339 337 335 336 341 348 357 9
344 304 300 195 141 170 237 322 325 307 293 268 258 274 357 13 11 5 358 351 347 344 348 351 349 344 341 339 338 339 340 345 359 2 353 348 345 341 338 336 339 341 345 348
296 271 262 285 310 331 320 320 323 319 288 285 293 318 346 1 360 355 348 343 342 347 351 349 347 345 343 342 342 343 347 356 1 1 357 352 346 342 341 341 343 343 342 341
309 280 292 298 300 298 302 306 307 300 298 302 321 331 344 0 353 347 341 338 345 348 348 348 348 347 346 347 348 351 355 1 1 0 359 352 346 342 342 343 344 345 347 354
312 288 300 285 280 290 280 283 303 343 346 330 328 326 352 352 347 342 336 342 347 345 347 348 349 349 351 352 353 355 358 358 358 359 358 352 347 345 346 346 350 356 5 12
307 304 312 291 333 322 314 57 44 13 341 332 323 335 353 345 345 337 332 350 347 345 346 349 350 350 352 354 352 352 353 354 356 357 355 351 348 349 349 350 355 1 5 10
301 298 286 300 330 319 44 66 45 352 322 340 359 351 346 345 335 323 349 357 346 346 349 351 351 351 353 351 348 347 350 352 353 352 349 347 347 348 351 355 358 358 358 1
305 321 333 339 316 290 91 46 14 333 309 27 358 346 345 341 325 322 10 355 347 350 352 351 350 351 351 348 342 341 346 347 347 347 345 346 348 347 350 352 351 351 348 351
308 299 284 256 287 286 61 30 337 323 298 17 0 348 344 339 327 330 351 350 352 352 353 351 349 352 351 344 339 341 347 348 347 343 341 345 348 346 347 343 341 345 344 343
213 216 198 243 254 277 62 357 355 336 316 351 352 348 343 330 316 320 337 345 349 350 352 352 349 349 343 334 336 343 348 348 342 339 342 346 346 341 345 338 336 341 341 339
310 298 223 222 252 280 27 7 358 310 330 344 352 350 333 321 321 328 335 341 348 351 352 350 346 341 334 329 336 344 348 343 340 339 343 345 345 346 348 335 337 343 341 343
225 314 327 291 260 350 16 349 332 346 342 351 354 347 335 325 327 332 335 342 350 350 348 346 340 333 328 328 339 346 345 343 342 342 342 341 343 345 341 337 341 351 349 354
138 88 12 302 310 328 333 336 348 1 5 9 3 345 335 331 332 334 335 344 348 345 344 340 333 326 325 329 339 347 345 342 341 340 340 341 342 343 341 343 344 347 347 353
326 131 225 265 287 322 359 353 352 6 15 6 351 339 339 340 335 336 339 347 344 340 336 329 321 320 328 335 340 348 347 342 339 338 339 341 344 338 337 344 341 339 326 327
226 204 235 304 19 347 319 333 357 4 7 6 345 334 343 346 337 342 345 346 339 332 326 321 320 331 337 339 343 349 347 342 341 342 341 342 342 339 341 340 340 342 343 342
Height
1503 1507 1512 1511 1508 1510 1509 1508 1507 1499 1495 1499 1501 1503 1506 1507 1510 1514 1517 1518 1518 1517 1516 1513 1510 1507 1503 1500 1498 1496 1494 1491 1488 1486 1484 1482 1481 1480 1478 1477 1475 1474 1473 1471
1504 1513 1513 1509 1508 1508 1508 1508 1505 1500 1497 1500 1500 1502 1508 1511 1515 1519 1521 1521 1521 1519 1517 1514 1512 1509 1505 1502 1499 1496 1493 1489 1486 1483 1480 1478 1476 1474 1473 1472 1471 1469 1468 1467
1512 1516 1512 1510 1509 1512 1510 1510 1512 1511 1504 1497 1497 1505 1513 1515 1517 1521 1522 1523 1522 1520 1518 1516 1513 1510 1507 1503 1499 1496 1493 1488 1483 1479 1476 1473 1470 1468 1467 1466 1464 1463 1462 1462
1512 1515 1514 1512 1514 1518 1516 1510 1511 1509 1512 1509 1501 1512 1517 1516 1520 1522 1523 1523 1522 1521 1519 1517 1514 1511 1508 1504 1499 1495 1490 1484 1479 1475 1472 1468 1466 1464 1462 1461 1459 1457 1456 1456
1517 1519 1519 1519 1520 1519 1516 1511 1507 1504 1508 1510 1503 1508 1509 1515 1521 1524 1524 1523 1522 1521 1519 1517 1514 1510 1507 1502 1496 1491 1485 1480 1476 1472 1469 1465 1461 1459 1456 1455 1454 1452 1451 1451
1518 1521 1523 1524 1520 1517 1515 1508 1496 1494 1502 1513 1498 1504 1512 1519 1524 1525 1524 1523 1522 1521 1519 1516 1512 1508 1503 1498 1492 1487 1482 1478 1474 1470 1466 1462 1457 1453 1450 1449 1448 1447 1446 1446
1518 1523 1524 1524 1523 1520 1518 1519 1516 1514 1513 1509 1499 1502 1522 1523 1523 1524 1524 1524 1522 1520 1517 1514 1509 1504 1499 1494 1490 1485 1480 1475 1471 1467 1463 1458 1453 1448 1444 1443 1442 1441 1441 1441
1530 1526 1528 1528 1530 1531 1524 1524 1535 1539 1528 1515 1504 1508 1530 1522 1523 1524 1524 1523 1521 1519 1516 1512 1508 1503 1498 1493 1488 1483 1478 1473 1468 1463 1459 1454 1449 1443 1439 1436 1435 1435 1435 1435
1540 1534 1528 1530 1529 1530 1529 1529 1529 1535 1527 1523 1506 1528 1525 1519 1522 1523 1523 1522 1521 1519 1515 1511 1506 1502 1497 1491 1486 1481 1476 1470 1465 1460 1456 1450 1445 1439 1434 1430 1429 1428 1428 1429
1544 1544 1530 1528 1529 1530 1531 1532 1535 1534 1534 1532 1517 1510 1524 1523 1525 1525 1524 1523 1522 1519 1515 1510 1505 1500 1495 1490 1484 1479 1474 1468 1463 1458 1453 1448 1442 1436 1430 1426 1423 1422 1422 1423
1546 1546 1536 1527 1527 1534 1534 1531 1531 1532 1531 1536 1530 1524 1524 1529 1528 1528 1526 1525 1522 1517 1513 1508 1503 1498 1493 1487 1481 1476 1470 1465 1460 1455 1450 1445 1439 1433 1428 1423 1420 1418 1417 1417
1548 1549 1543 1533 1534 1533 1535 1536 1538 1544 1538 1534 1537 1532 1520 1524 1526 1527 1526 1523 1519 1515 1511 1507 1502 1496 1490 1484 1478 1472 1467 1462 1457 1452 1447 1442 1437 1431 1426 1421 1418 1415 1413 1412
1553 1550 1547 1537 1539 1536 1535 1535 1537 1539 1541 1541 1542 1530 1513 1518 1521 1523 1523 1521 1519 1515 1511 1506 1501 1495 1489 1482 1475 1469 1464 1459 1453 1449 1444 1439 1434 1429 1424 1420 1416 1413 1411 1410
1555 1552 1550 1549 1543 1539 1540 1540 1540 1543 1549 1544 1538 1531 1527 1527 1528 1527 1526 1523 1520 1516 1511 1506 1500 1494 1487 1480 1474 1468 1462 1457 1451 1446 1442 1437 1432 1427 1423 1419 1415 1412 1410 1409
1555 1554 1547 1543 1540 1539 1540 1541 1542 1543 1543 1546 1541 1538 1535 1534 1534 1531 1528 1523 1519 1515 1510 1505 1499 1492 1486 1479 1473 1467 1461 1455 1450 1445 1440 1436 1432 1427 1423 1419 1416 1413 1411 1409
1554 1555 1551 1546 1539 1539 1540 1539 1540 1542 1544 1544 1544 1543 1539 1538 1535 1532 1528 1523 1519 1514 1509 1504 1498 1491 1485 1479 1473 1467 1461 1455 1450 1445 1440 1436 1432 1428 1424 1420 1417 1415 1412 1410
1556 1557 1556 1554 1543 1543 1540 1545 1547 1549 1549 1550 1550 1547 1541 1538 1536 1533 1528 1523 1519 1514 1508 1503 1497 1491 1485 1479 1473 1467 1461 1456 1451 1446 1441 1437 1433 1429 1425 1422 1419 1416 1414 1411
1559 1557 1558 1559 1557 1561 1554 1549 1551 1552 1550 1549 1548 1546 1543 1541 1537 1534 1528 1523 1518 1513 1507 1502 1496 1490 1484 1478 1473 1467 1462 1456 1451 1446 1441 1437 1433 1430 1426 1423 1420 1417 1415 1413
1559 1560 1562 1568 1566 1558 1553 1554 1554 1554 1553 1549 1548 1545 1542 1539 1533 1529 1527 1523 1518 1512 1507 1502 1496 1490 1484 1478 1472 1466 1461 1456 1451 1446 1442 1438 1434 1430 1426 1423 1420 1418 1415 1413
1562 1561 1565 1566 1572 1568 1559 1556 1553 1553 1551 1548 1546 1544 1542 1538 1533 1527 1525 1520 1516 1511 1506 1500 1495 1489 1483 1477 1471 1466 1461 1456 1451 1447 1443 1439 1435 1430 1427 1423 1421 1418 1416 1414
1562 1563 1568 1568 1569 1560 1558 1555 1554 1560 1558 1549 1546 1544 1542 1540 1537 1530 1524 1519 1515 1510 1505 1499 1493 1488 1482 1477 1472 1467 1462 1457 1452 1448 1444 1440 1435 1431 1427 1424 1421 1418 1415 1413
1561 1562 1562 1563 1568 1569 1556 1555 1557 1557 1551 1548 1546 1543 1541 1537 1532 1528 1523 1518 1513 1508 1503 1498 1492 1487 1482 1477 1472 1467 1462 1458 1453 1449 1444 1440 1436 1432 1428 1424 1421 1418 1415 1413
1561 1561 1563 1562 1563 1557 1555 1556 1556 1553 1550 1547 1544 1540 1537 1533 1529 1525 1521 1517 1512 1507 1502 1497 1492 1487 1483 1478 1473 1468 1463 1458 1453 1448 1444 1440 1436 1432 1428 1425 1421 1418 1415 1412
1557 1560 1561 1561 1557 1556 1556 1555 1554 1552 1549 1545 1542 1538 1534 1530 1526 1523 1519 1515 1510 1505 1501 1496 1491 1487 1483 1478 1474 1468 1463 1457 1452 1447 1443 1439 1435 1431 1427 1424 1421 1418 1415 1412
1559 1559 1561 1560 1557 1555 1555 1555 1552 1549 1545 1542 1538 1535 1531 1528 1524 1521 1517 1513 1508 1504 1499 1495 1491 1487 1483 1478 1473 1468 1462 1457 1451 1447 1442 1438 1434 1430 1426 1423 1421 1418 1415 1413
1558 1559 1560 1559 1557 1557 1555 1553 1550 1546 1542 1538 1535 1531 1529 1526 1522 1519 1515 1511 1507 1503 1499 1495 1491 1487 1482 1477 1472 1467 1462 1457 1451 1446 1442 1437 1433 1429 1426 1422 1419 1416 1414 1412